FALCON HEAVY R/B, 57480

Orbit data source: Space-Track

FALCON HEAVY R/B, 57480 is space debris in HEO originally from a launch on Sat, 29 Jul 2023 UTC launched from the Air Force Eastern Test Range (AFETR). Debris objects in space refer to the collection of defunct objects orbiting the Earth. Examples of debris include non-operational satellites, rocket bodies, and fragments generated from explosions, collisions, or faulty payload assembly.

Loading next visibility...
Identifier
57480, 2023-108B
Orbit
HEO
Country
Flag of USUS
Related business
Manufacturer
SpaceX
Mission
Spacecraft
Bus & Motor
F9ST2, Unknown motor
Mass
~4,000 kg wet, ~4,000 kg dry
Launch date (UTC)
2023-07-29 (2 years ago)
Launch vehicle
Unknown
Launch site
Air Force Eastern Test Range (AFETR)
Object type
Payload
Rocket body
Debris
Shape & HBR
Cyl, Unknown HBR
Radar Cross Section
49.816 m², Large (>1 m²)

Expand to show TLE details & history
Last TLE update: 1 day ago

TLE from 1 day ago
0 FALCON HEAVY R/B
1 57480U 23108B   25259.16519771 -.00000033  00000-0  00000-0 0  9995
2 57480  10.6238 120.8621 4983696 338.9162   6.3339  1.84352688 14399
Epoch: 2025-09-16T03:57Z
TLE epoch observation values (Epoch: 2025-09-16T03:57:53.082Z)
Latitude
0.0001°
Longitude
66.07357°
Altitude
8,055.775 km
Speed
6.407 km/s
True Right ascension
08h 03m 36s
True Declination
0° 00' 00"
Sunlit
Object was in daylight at epoch
Visualization orbit readout
Latitude
Unknown
Longitude
Unknown
Altitude
Unknown
Speed
Unknown
Apparent Right ascension
Unknown
Apparent Declination
Unknown
Sunlit
N/A
Visualization observer readout
Local Sidereal Time
21:34:58
Azimuth
Unknown
Elevation
Unknown
Doppler factor
Unknown
Orbital elements
Apogee altitude
35,722.633 km
Perigee altitude
7,716.534 km
Semi-major axis
28,097.72 km
Eccentricity
0.49837
Inclination
10.6238°
RAAN
120.8621°
Arg. of periapsis
338.9162°
True anomaly
21.48293°
Mean anomaly
6.3339°
Eccentric anomaly
12.52769°
Mean motion
0.46083 °/min
Orbital period
781.21 mins
BSTAR
0
Loading maneuver chart data...
Computing Atmospheric mass density...
Loading historical data...
Loading historical data...
Loading historical data...
Loading historical data...
Loading historical data...
Loading historical data...
Loading historical data...
Other satellites on launch #108 in the year 2023 (2023-07-29 UTC)

Documentation

Showing up to 5 results
|